SCP
0 0 0 0 0 0 0 0 0 0 0 0 0 0 0 0 0 0 0 0 0 0 0 0 0 0 0 0 0 0 0 0 0 0 0 0 0 0 0 0 0 0 0
0 0 0 0 0 0 0 0 0 0 0 0 0 0 0 0 0 0 0 0 0 0 0 0 0 0 0 0 0 0 0 0 0 0 0 0 0 0 0 0 0 0 0
0 0 0 0 0 0 0 0 0 0 0 0 0 0 0 0 0 0 0 0 0 0 0 0 0 0 0 0 0 0 0 0 0 0 0 0 0 0 0 0 0 0 0
0 0 0 0 0 0 0 0 0 0 0 0 0 0 0 0 0 0 0 0 0 0 0 0 0 0 0 0 0 0 0 0 0 0 0 0 0 0 0 0 0 0 0
0 0 0 0 0 0 0 0 0 0 0 0 0 0 0 0 0 0 0 0 0 0 0 0 0 0 0 0 0 0 0 0 0 0 0 0 0 0 0 0 0 0 0
0 0 0 0 0 0 0 0 0 0 0 0 0 0 0 0 0 0 0 0 0 0 0 0 0 0 0 0 0 0 0 0 0 0 0 0 0 0 0 0 0 0 0
0 0 0 0 0 0 0 0 0 0 0 0 0 0 0 0 0 0 0 0 0 0 0 0 0 0 0 0 0 0 0 0 0 0 0 0 0 0 0 0 0 0 0
0 0 0 0 0 0 0 0 0 0 0 0 0 0 0 0 0 0 0 0 0 0 0 0 0 0 0 0 0 0 0 0 0 0 0 0 0 0 0 0 0 0 0
0 0 0 0 0 0 0 0 0 0 0 0 0 0 0 0 0 0 0 0 0 0 0 0 0 0 0 0 0 0 0 0 0 0 0 0 0 0 0 0 0 0 0
0 0 0 0 0 0 0 0 0 0 0 0 0 0 0 0 0 0 0 0 0 0 0 0 0 0 0 0 0 0 0 0 0 0 0 0 0 0 0 0 0 0 0
0 0 0 0 0 0 0 0 0 0 0 0 0 0 0 0 0 0 0 0 0 0 0 0 0 0 0 0 0 0 0 0 0 0 0 0 0 0 0 0 0 0 0
0 0 0 -0 -0 0 0 0 0 0 0 0 0 0 0 0 0 0 0 0 0 0 0 0 0 0 0 0 0 0 0 0 0 0 0 0 0 0 0 0 0 0 0
0 0 0 0 -0 0 0 0 0 0 0 0 0 0 0 0 0 0 0 0 0 0 0 0 0 0 0 0 0 0 0 0 0 0 0 0 0 0 0 0 0 0 0
0 0 0 0 -0 -0 0 0 0 0 0 0 0 0 0 0 0 0 0 0 0 0 0 0 0 0 0 0 0 0 0 0 0 0 0 0 0 0 0 0 0 0 0
0 0 0 -0 -0 -0 0 0 0 -0 -0 0 0 0 0 0 0 0 0 0 0 0 0 0 0 0 0 0 0 0 0 0 0 0 0 0 0 0 0 0 0 0 0
0 0 0 -0 -0 -0 0 0 0 -0 -0 0 0 0 0 0 0 0 0 0 0 0 0 0 0 0 0 0 0 0 0 0 0 0 0 0 0 0 0 0 0 0 0
0 0 0 -0 -0 0 0 0 0 0 0 0 0 0 0 0 0 0 0 0 0 0 0 0 0 0 0 0 0 0 0 0 0 0 0 0 0 0 0 0 0 0 0
0 0 0 -0 -0 0 0 0 0 0 0 0 0 0 0 0 0 0 0 0 0 0 0 0 0 0 0 0 0 0 0 0 0 0 0 0 0 0 0 0 0 0 0
0 0 0 -0 0 0 0 0 0 0 0 0 0 0 0 0 0 0 0 0 0 0 0 0 0 0 0 0 0 0 0 0 0 0 0 0 0 0 0 0 0 0 0
0 0 0 -0 0 0 0 0 0 0 0 0 0 0 0 0 0 0 0 0 0 0 0 0 0 0 0 0 0 0 0 0 0 0 0 0 0 0 0 0 0 0 0
0 0 0 0 0 0 0 0 0 0 0 0 0 0 0 0 0 0 0 0 0 0 0 0 0 0 0 0 0 0 0 0 0 0 0 0 0 0 0 0 0 0 0
0 0 0 0 0 0 0 0 0 0 0 0 0 0 0 0 0 0 0 0 0 0 0 0 0 0 0 0 0 0 0 0 0 0 0 0 0 0 0 0 0 0 0
0 0 0 0 0 0 0 0 0 0 0 0 0 0 0 0 0 0 0 0 0 0 0 0 0 0 0 0 0 0 0 0 0 0 0 0 0 0 0 0 0 0 0
0 0 -0 0 0 0 0 0 0 0 0 0 0 0 0 0 0 0 0 0 0 0 0 0 0 0 0 0 0 0 0 0 0 0 0 0 0 0 0 0 0 0 0
0 0 0 0 0 0 0 0 0 0 0 0 0 0 0 0 0 0 0 0 0 0 0 0 0 0 0 0 0 0 0 0 0 0 0 0 0 0 0 0 0 0 0
0 0 0 0 0 0 0 0 0 0 0 0 0 0 0 0 0 0 0 0 0 0 0 0 0 0 0 0 0 0 0 0 0 0 0 0 0 0 0 0 0 0 0
Wind_Speed
3 3 2 2 2 1 1 1 2 2 2 1 1 2 2 2 2 2 3 4 4 4 4 3 3 3 3 4 4 4 5 4 3 3 4 5 6 7 6 6 5 6 7
4 3 3 2 2 1 1 1 1 2 2 2 2 2 2 2 2 2 2 3 4 4 4 4 4 4 4 5 5 4 4 4 4 3 2 3 4 5 7 6 6 7 6
3 3 2 2 1 0 0 1 1 1 2 3 2 1 1 1 1 2 2 2 3 4 4 4 4 4 4 5 5 5 6 5 4 4 4 3 4 3 4 6 6 6 6
3 2 2 2 1 1 1 1 1 1 1 2 2 3 2 2 2 2 2 2 3 3 3 4 4 4 4 5 5 5 5 5 5 4 5 5 3 3 3 3 5 7 7
4 3 2 2 2 2 1 1 1 1 1 2 3 3 3 3 2 1 3 3 3 3 4 3 3 4 4 5 5 5 5 5 5 5 4 5 5 5 4 5 4 5 6
3 3 3 3 2 2 1 1 2 2 1 1 1 2 3 3 2 3 3 3 2 2 3 3 3 4 4 4 5 5 6 6 6 5 5 4 5 5 5 6 5 5 5
3 3 3 2 1 1 1 1 2 2 2 1 2 2 2 2 3 3 3 3 2 2 3 3 3 4 4 4 4 5 6 6 7 7 6 6 6 5 5 6 5 5 4
3 3 2 2 1 0 0 1 2 2 2 2 2 2 2 2 2 2 2 3 3 3 3 3 4 5 5 5 5 5 6 6 6 7 7 5 6 6 6 6 5 6 5
3 2 2 1 1 0 0 1 2 2 2 2 2 2 2 2 2 3 3 3 3 3 3 4 4 5 5 5 5 5 6 6 6 7 7 7 6 6 6 6 6 6 7
3 2 2 2 1 1 1 1 2 2 2 2 2 2 2 2 2 2 3 3 3 3 3 4 4 5 5 5 5 5 5 6 6 6 7 8 6 6 6 6 6 6 7
2 2 2 2 1 1 1 1 2 2 2 2 2 2 3 2 3 3 3 3 3 3 4 4 4 5 5 5 5 6 6 7 7 7 8 9 7 6 6 5 6 6 6
2 2 1 1 1 0 1 1 2 2 2 2 2 3 3 3 3 3 3 3 4 4 4 4 5 6 6 6 6 7 7 7 8 8 7 8 6 7 6 5 6 6 6
2 2 1 1 1 1 1 1 2 3 3 2 2 3 4 4 4 4 4 4 4 4 4 4 5 6 6 6 6 6 7 7 8 8 8 7 7 8 6 6 6 5 5
2 2 1 0 1 1 2 2 2 2 3 3 2 3 4 4 4 4 4 4 4 4 5 5 5 5 5 6 6 6 7 7 8 7 7 7 8 8 7 7 7 6 6
2 1 1 0 1 2 2 2 2 2 3 3 3 4 4 4 5 5 5 5 5 5 5 5 6 5 5 5 5 6 7 7 7 7 7 7 8 9 8 7 6 6 6
2 1 1 1 1 2 2 2 2 3 3 3 4 4 4 5 5 5 5 5 5 5 5 5 6 6 6 8 10 9 7 7 7 7 7 7 8 9 11 11 10 8 7
2 1 1 1 1 2 2 2 2 3 3 4 4 5 5 6 6 6 6 5 5 6 5 5 5 6 7 10 11 12 8 7 6 6 6 7 7 8 7 8 8 9 10
2 2 2 1 2 2 2 3 3 2 3 4 5 5 6 6 7 6 6 6 5 5 5 5 5 6 7 10 11 12 7 6 6 6 6 7 7 7 6 5 5 5 6
2 2 1 1 2 2 2 3 3 3 3 4 5 5 6 6 7 7 6 6 6 6 6 5 5 5 6 9 11 10 5 5 6 6 6 6 6 8 7 5 5 5 4
3 2 1 1 2 2 2 3 3 3 4 4 5 5 5 6 7 7 7 6 6 6 5 5 5 5 5 8 10 10 4 5 5 5 5 7 8 8 7 5 5 6 4
2 1 1 1 2 2 2 3 3 4 4 4 5 5 5 6 7 6 5 5 5 6 5 5 4 5 6 7 9 10 5 4 5 5 5 5 9 9 8 7 5 6 4
1 1 1 1 2 2 2 3 4 4 4 4 5 6 5 5 6 5 5 5 5 5 5 5 5 4 4 6 8 9 9 8 5 5 4 4 8 9 9 6 5 5 4
0 0 1 2 3 3 2 3 4 4 4 4 5 5 5 5 5 5 5 5 4 4 4 4 5 4 4 4 8 9 9 10 6 4 7 8 8 7 5 5 6 4 2
0 0 1 2 3 3 3 3 4 4 4 5 5 5 5 5 5 4 4 4 4 4 4 4 5 4 4 4 4 4 4 6 6 4 5 7 6 5 5 5 3 2 2
1 0 1 2 3 3 3 3 3 3 4 4 4 4 4 5 5 4 4 4 4 4 5 4 3 4 5 6 10 8 5 4 4 5 3 2 2 2 2 2 2 1 0
1 0 1 2 3 3 3 3 3 2 3 4 4 3 3 4 4 4 5 6 7 10 10 9 8 6 8 12 12 11 10 10 8 5 3 3 2 2 2 2 2 2 1
Wind_Direction
190 153 153 147 155 160 176 185 178 191 177 182 206 215 232 237 242 235 234 231 219 209 206 216 219 217 217 220 222 227 229 232 220 239 261 257 240 234 230 224 225 228 225
189 164 164 151 156 167 167 225 203 204 188 199 209 215 221 222 223 234 239 233 227 217 218 213 215 216 218 228 229 223 229 235 210 203 236 260 258 244 233 224 225 229 224
167 150 156 149 140 129 60 299 248 232 202 194 200 226 218 220 220 239 240 241 244 228 221 222 217 219 218 226 232 222 222 233 228 206 206 223 238 258 238 227 226 228 225
158 152 145 118 108 85 43 333 266 245 226 200 196 200 211 217 228 225 238 245 241 240 227 232 231 229 227 230 237 235 228 225 232 229 226 231 231 241 264 242 230 230 230
152 154 142 119 92 71 47 348 338 291 243 223 216 213 225 229 227 224 237 244 242 240 233 226 231 235 240 239 238 242 237 229 232 228 228 242 250 243 244 259 246 239 232
133 126 114 109 90 64 29 354 347 327 304 252 243 231 233 238 243 246 242 242 241 243 243 242 236 236 237 243 246 243 241 237 238 235 227 226 231 235 237 249 249 251 247
132 129 123 115 111 86 17 345 339 319 315 308 289 269 252 252 249 250 246 254 250 247 245 263 250 245 243 245 250 250 246 241 241 238 237 234 237 236 235 244 251 255 259
132 128 131 129 120 115 347 342 334 313 310 304 295 293 274 254 253 256 248 247 246 242 242 252 265 257 251 254 252 253 252 249 243 246 243 243 243 239 236 238 248 263 261
135 132 118 114 90 26 349 328 327 317 320 318 310 300 289 273 271 266 256 249 249 251 245 249 262 263 252 250 251 252 252 251 246 245 245 244 246 244 239 235 228 238 258
153 148 135 116 90 44 7 331 330 315 306 316 316 314 297 281 277 277 272 269 263 263 261 260 260 267 260 255 254 257 257 257 253 248 249 247 243 242 239 236 234 232 243
148 141 126 114 103 54 3 335 329 324 320 325 321 320 311 296 283 276 276 280 279 269 262 261 262 266 263 256 253 255 256 257 259 257 252 250 246 245 241 239 235 233 234
131 121 111 93 75 23 336 336 336 336 315 315 320 319 317 310 296 287 282 281 281 276 272 270 268 266 269 265 257 261 262 260 262 260 260 259 255 249 246 242 242 239 235
126 108 89 61 358 339 335 336 338 338 332 328 322 319 317 313 300 294 288 284 280 279 279 281 274 273 271 271 264 260 262 263 264 262 259 260 255 252 250 245 245 247 250
135 123 105 32 345 346 347 337 335 343 343 335 320 313 308 304 299 294 292 290 286 282 280 276 274 274 274 270 271 268 266 267 267 267 266 265 255 250 252 248 243 243 244
166 159 160 340 340 348 350 344 339 344 340 335 325 306 301 299 299 294 292 292 289 288 281 280 276 274 274 274 281 282 274 270 271 271 267 267 267 262 256 256 246 239 240
174 151 129 23 342 334 337 338 335 332 334 327 316 313 307 301 298 293 289 286 286 284 282 282 282 279 283 293 293 292 280 273 272 274 276 274 267 266 261 261 256 248 243
143 112 85 37 346 334 334 328 320 328 329 319 317 319 316 310 300 296 295 289 286 287 282 278 281 280 284 292 293 292 288 277 271 272 276 280 277 274 260 257 257 254 254
102 78 58 20 346 338 338 331 328 328 320 316 316 318 319 315 312 302 294 291 289 289 278 275 276 278 286 296 298 297 287 282 275 273 273 274 277 270 269 254 252 254 254
102 99 85 25 343 332 335 334 325 320 316 312 312 314 316 315 313 306 301 297 294 291 280 277 281 282 287 297 302 304 287 286 285 281 279 277 275 281 285 261 250 255 258
79 76 59 20 336 323 339 329 314 316 310 309 310 313 316 313 308 306 304 303 297 293 289 283 282 283 284 295 302 305 290 288 292 292 284 280 284 285 285 261 245 248 252
70 58 34 339 311 318 331 313 311 309 310 318 319 315 314 313 309 307 308 309 307 305 298 287 285 282 289 297 301 304 298 288 291 293 293 289 294 291 287 279 258 256 262
50 10 343 316 317 328 334 315 310 316 329 328 320 315 314 316 318 315 313 314 314 309 307 304 301 292 295 304 304 306 307 308 293 289 294 298 306 302 296 284 272 273 273
267 352 342 323 323 330 336 317 317 332 329 322 316 315 318 318 318 318 319 318 320 315 312 313 311 314 318 317 319 315 313 314 309 298 303 309 312 313 305 296 291 280 242
293 4 346 326 321 330 335 320 323 329 323 318 316 317 319 322 324 323 321 318 318 316 313 313 313 314 317 320 323 317 316 317 315 311 309 313 314 315 319 321 311 283 231
283 324 316 305 308 319 319 322 323 329 325 318 317 320 323 322 320 320 317 314 308 308 309 308 307 311 313 316 319 321 317 313 304 311 309 307 310 320 324 326 327 321 280
248 272 292 297 305 313 315 320 324 330 323 315 317 319 320 318 317 318 320 320 316 320 321 321 317 314 313 316 318 319 319 320 319 321 318 320 316 314 320 327 332 343 350